Location: Tel Aviv
(32.0670°N, 34.7670°E)
Time: 21:09:19
(UTC+02:00)

CUTE-I - Pass Details

Date: 16 December 2025
Orbit: 805 x 817 km, 98.7° (Epoch: 21 January)

Event Time Altitude Azimuth Distance (km) Brightness Sun altitude
Rises 17:58:31 0° 189° (S) 3,302 ? -16.5°
Reaches altitude 10° 18:01:03 10° 199° (SSW) 2,376 ? -17.0°
Maximum altitude 18:05:44 33° 262° (W) 1,336 ? -18.0°
Drops below altitude 10° 18:10:27 10° 325° (NW) 2,392 ? -18.9°
Sets 18:13:02 0° 335° (NNW) 3,329 ? -19.5°
